Regional Weather Roundup
Issued by NWS Huntsville, AL

Home | Current Version | Previous Version | Text Only | Print | Product List | Glossary On
Versions: 1 2 3 4 5 6 7 8 9 10 11 12 13 14 15 16 17 18 19 20 21 22 23 24 25 26 27 28 29 30 31 32 33 34 35 36 37 38 39 40 41 42 43 44 45 46 47 48 49 50
000
ASUS44 KHUN 252210
RWRHUN

WEATHER ROUNDUP FOR THE TENNESSEE VALLEY
NATIONAL WEATHER SERVICE HUNTSVILLE AL
500 PM CDT SUN SEP 25 2016

ALZ001>004-252300-
NORTHWEST ALABAMA

CITY           SKY/WX    TMP DP  RH WIND       PRES   REMARKS
SHOALS AIRPORT CLOUDY    97  56  25 VRB6      29.97F HX  95
$$

ALZ005>007-016-252300-
NORTH CENTRAL ALABAMA

CITY           SKY/WX    TMP DP  RH WIND       PRES   REMARKS
DECATUR AP     SUNNY     97  57  26 N12       29.97F HX  96
HUNTSVILLE AP  MOSUNNY   98  54  22 VRB6      29.96F HX  96
MERIDIANVILLE  SUNNY     93  41  16 CALM      29.98F
REDSTONE ARSN  MOSUNNY   95  54  25 NW7       29.96F HX  93
VINEMONT AP    FAIR      94  56  27 CALM      30.00F HX  92
$$

ALZ008>010-252300-
NORTHEAST ALABAMA

CITY           SKY/WX    TMP DP  RH WIND       PRES   REMARKS
ALBERTVILLE    MOSUNNY   91  64  40 CALM      29.98F HX  93
FORT PAYNE     SUNNY     93  43  17 CALM      29.98S
SCOTTSBORO AP  SUNNY     95  55  26 W5        29.97S HX  93
SCOTTSBORO HCN   N/A     95 N/A N/A MISG        N/A
VALLEY HEAD      N/A     91 N/A N/A MISG        N/A
$$

TNZ076-096-097-252300-
SOUTHEASTERN MIDDLE TENNESSEE

CITY           SKY/WX    TMP DP  RH WIND       PRES   REMARKS
TULLAHOMA      SUNNY     90  57  33 NW6       30.03S
WINCHESTER     SUNNY     91  63  38 N3        30.01S HX  92
$$

...SURROUNDING SITES...

CITY           SKY/WX    TMP DP  RH WIND       PRES   REMARKS
ATLANTA        MOSUNNY   90  61  37 S8        30.02F HX  90
ANNISTON       SUNNY     96  52  22 E8        29.97S HX  93
BIRMINGHAM     MOSUNNY   97  52  21 E6        29.98F HX  94
CHATTANOOGA    MOSUNNY   95  58  28 N5        29.98F HX  94
CORINTH        PTSUNNY   95  55  26 CALM      29.95F HX  93
DALTON         SUNNY     93  57  29 SE7       29.99S HX  92
GADSDEN        SUNNY     95  60  31 E3        29.97F HX  95
GOLDEN TRNGL   MOSUNNY   79  61  53 N7        29.96
HALEYVILLE     FAIR      94  58  29 NW6       30.00F HX  93
JACKSON TN     SUNNY    N/A N/A N/A NE6       29.98F
MEMPHIS        MOSUNNY   97  62  31 NE7       29.96F HX  98
NASHVILLE      MOSUNNY   91  61  36 NE9       30.01S HX  91
OXFORD MS      FAIR      91  57  31 NW6       29.96F HX  90
ROME           SUNNY     94  55  26 SE6       29.97F HX  92
SAVANNAH       SUNNY     93  61  33 N9        29.96F HX  93
TUPELO         SUNNY     96  54  24 N6        29.94F HX  94
TUSCALOOSA     MOSUNNY   89  66  46 S5        29.95S HX  91
$$

...GULF COAST WEATHER...

CITY           SKY/WX    TMP DP  RH WIND       PRES   REMARKS
GULFPORT       MOSUNNY   90  70  51 S7        29.94F HX  95
PASCAGOULA     CLOUDY    83  74  74 CALM      29.96S
MOBILE         CLOUDY    82  70  66 CALM      30.00R THUNDER
GULF SHORES    CLOUDY    82  73  72 NE7       29.97S
PENSACOLA      LGT RAIN  78  69  73 NW6       29.95F
DESTIN         MOSUNNY   90  77  65 SW5       29.96R HX 103
PANAMA CITY    SUNNY     86  71  60 VRB3      29.97R HX  92
APPALACHICOLA  SUNNY     87  75  67 S6        29.97R HX  96
$$




USA.gov is the U.S. government's official web portal to all federal, state and local government web resources and services.